OKPUS24 LKHV-LKPC

Flight info

Callsign OKPUS24
Flight time 0h 23m
Altitude 4500
Route DIR
Aircraft C152/L-V/N

Departure

Time 2026-04-15 12:26
Airport Hořovice Airfield (LKHV)

Arrival

Time 2026-04-15 12:49
Airport Panensky Tynec Airfield (LKPC)
Time Latitude Longitude Altitude Speed Heading
2026-04-15 12:09 49.84449 13.88555 1225 ft 0 kts 159°
2026-04-15 12:18 49.84448 13.88556 1227 ft 2 kts 181°
2026-04-15 12:19 49.84447 13.88549 1227 ft 1 kts 332°
2026-04-15 12:19 49.84461 13.88513 1227 ft 5 kts 243°
2026-04-15 12:19 49.84433 13.88417 1225 ft 12 kts 253°
2026-04-15 12:19 49.84470 13.88302 1225 ft 13 kts 346°
2026-04-15 12:20 49.84518 13.88377 1225 ft 11 kts 64°
2026-04-15 12:20 49.84564 13.88535 1227 ft 21 kts 66°
2026-04-15 12:20 49.84620 13.88729 1227 ft 6 kts 62°
2026-04-15 12:20 49.84629 13.88759 1227 ft 11 kts 66°
2026-04-15 12:21 49.84681 13.88941 1227 ft 21 kts 65°
2026-04-15 12:21 49.84741 13.89147 1226 ft 21 kts 65°
2026-04-15 12:21 49.84814 13.89397 1226 ft 29 kts 66°
2026-04-15 12:21 49.84892 13.89668 1229 ft 26 kts 65°
2026-04-15 12:22 49.84963 13.89912 1230 ft 26 kts 66°
2026-04-15 12:22 49.85038 13.90170 1228 ft 27 kts 65°
2026-04-15 12:22 49.85085 13.90350 1225 ft 13 kts 90°
2026-04-15 12:22 49.85080 13.90404 1227 ft 0 kts 27°
2026-04-15 12:24 49.85081 13.90404 1227 ft 1 kts 26°
2026-04-15 12:24 49.85083 13.90326 1227 ft 19 kts 245°
2026-04-15 12:25 49.84957 13.89888 1230 ft 69 kts 245°
2026-04-15 12:25 49.84717 13.89103 1346 ft 82 kts 243°
2026-04-15 12:25 49.84472 13.88356 1620 ft 75 kts 241°
2026-04-15 12:25 49.84212 13.87605 1807 ft 85 kts 241°
2026-04-15 12:26 49.83930 13.86793 1992 ft 84 kts 242°
2026-04-15 12:26 49.83799 13.85926 2147 ft 84 kts 284°
2026-04-15 12:26 49.84199 13.85324 2332 ft 84 kts 340°
2026-04-15 12:26 49.84715 13.84959 2530 ft 84 kts 336°
2026-04-15 12:27 49.85275 13.84964 2652 ft 83 kts 30°
2026-04-15 12:27 49.85594 13.85674 2832 ft 79 kts 65°
2026-04-15 12:27 49.85847 13.86458 2975 ft 83 kts 62°
2026-04-15 12:27 49.86147 13.87258 3121 ft 87 kts 59°
2026-04-15 12:28 49.86463 13.88070 3269 ft 86 kts 60°
2026-04-15 12:28 49.86807 13.88772 3411 ft 83 kts 36°
2026-04-15 12:28 49.87417 13.88869 3408 ft 90 kts 355°
2026-04-15 12:28 49.88065 13.88685 3333 ft 93 kts 353°
2026-04-15 12:29 49.88689 13.88607 3358 ft 87 kts
2026-04-15 12:29 49.89288 13.88590 3379 ft 86 kts
2026-04-15 12:29 49.89901 13.88567 3414 ft 91 kts
2026-04-15 12:29 49.90522 13.88593 3408 ft 89 kts 17°
2026-04-15 12:30 49.91037 13.89060 3399 ft 85 kts 34°
2026-04-15 12:30 49.91589 13.89336 3386 ft 85 kts 359°
2026-04-15 12:30 49.92167 13.89370 3378 ft 82 kts
2026-04-15 12:30 49.92731 13.89429 3373 ft 80 kts
2026-04-15 12:31 49.93284 13.89436 3366 ft 78 kts
2026-04-15 12:31 49.93828 13.89389 3375 ft 81 kts 358°
2026-04-15 12:31 49.94399 13.89286 3379 ft 84 kts 354°
2026-04-15 12:31 49.94985 13.89129 3387 ft 86 kts 356°
2026-04-15 12:32 49.95513 13.89416 3390 ft 83 kts 30°
2026-04-15 12:32 49.96070 13.89717 3390 ft 84 kts 16°
2026-04-15 12:32 49.96642 13.89878 3383 ft 85 kts 10°
2026-04-15 12:32 49.97233 13.89953 3388 ft 86 kts
2026-04-15 12:33 49.97839 13.89994 3394 ft 87 kts
2026-04-15 12:33 49.98446 13.90044 3403 ft 89 kts
2026-04-15 12:33 49.99067 13.90116 3403 ft 89 kts
2026-04-15 12:33 49.99688 13.90189 3396 ft 89 kts
2026-04-15 12:34 50.00302 13.90259 3395 ft 88 kts
2026-04-15 12:34 50.00903 13.90325 3388 ft 87 kts
2026-04-15 12:34 50.01506 13.90387 3378 ft 86 kts
2026-04-15 12:34 50.02102 13.90450 3379 ft 85 kts
2026-04-15 12:35 50.02693 13.90509 3387 ft 86 kts
2026-04-15 12:35 50.03290 13.90571 3395 ft 87 kts
2026-04-15 12:35 50.03898 13.90642 3399 ft 88 kts
2026-04-15 12:35 50.04514 13.90712 3398 ft 88 kts
2026-04-15 12:36 50.05120 13.90776 3393 ft 87 kts
2026-04-15 12:36 50.05730 13.90838 3386 ft 87 kts
2026-04-15 12:36 50.06332 13.90900 3383 ft 86 kts
2026-04-15 12:36 50.06925 13.90958 3376 ft 84 kts
2026-04-15 12:37 50.07504 13.91021 3383 ft 85 kts
2026-04-15 12:37 50.08096 13.91089 3385 ft 85 kts
2026-04-15 12:37 50.08686 13.91155 3381 ft 85 kts
2026-04-15 12:37 50.09267 13.91214 3381 ft 84 kts
2026-04-15 12:38 50.09855 13.91272 3388 ft 85 kts
2026-04-15 12:38 50.10447 13.91334 3383 ft 85 kts
2026-04-15 12:38 50.11040 13.91403 3390 ft 86 kts
2026-04-15 12:38 50.11631 13.91466 3387 ft 86 kts
2026-04-15 12:39 50.12224 13.91527 3383 ft 85 kts
2026-04-15 12:39 50.12818 13.91590 3390 ft 85 kts
2026-04-15 12:39 50.13404 13.91766 3398 ft 87 kts 13°
2026-04-15 12:39 50.14007 13.91857 3397 ft 88 kts
2026-04-15 12:40 50.14613 13.91886 3396 ft 89 kts
2026-04-15 12:40 50.15229 13.91906 3391 ft 88 kts
2026-04-15 12:40 50.15839 13.91920 3383 ft 87 kts
2026-04-15 12:40 50.16441 13.91957 3377 ft 86 kts
2026-04-15 12:41 50.17037 13.92025 3382 ft 86 kts
2026-04-15 12:41 50.17639 13.92099 3393 ft 87 kts
2026-04-15 12:41 50.18260 13.92175 3412 ft 91 kts
2026-04-15 12:41 50.18890 13.92243 3394 ft 93 kts
2026-04-15 12:42 50.19541 13.92306 3240 ft 90 kts
2026-04-15 12:42 50.20142 13.92368 3070 ft 83 kts
2026-04-15 12:42 50.20702 13.92427 2895 ft 79 kts
2026-04-15 12:42 50.21244 13.92557 2773 ft 83 kts
2026-04-15 12:43 50.21834 13.92675 2734 ft 89 kts
2026-04-15 12:43 50.22460 13.92713 2709 ft 90 kts
2026-04-15 12:43 50.23081 13.92779 2696 ft 89 kts
2026-04-15 12:43 50.23701 13.92821 2692 ft 89 kts 10°
2026-04-15 12:44 50.24306 13.92958 2697 ft 90 kts
2026-04-15 12:44 50.24945 13.92994 2702 ft 92 kts
2026-04-15 12:44 50.25580 13.92996 2702 ft 92 kts
2026-04-15 12:44 50.26177 13.93186 2689 ft 85 kts 28°
2026-04-15 12:45 50.26759 13.93304 2692 ft 86 kts
2026-04-15 12:45 50.27362 13.93347 2688 ft 87 kts
2026-04-15 12:45 50.27984 13.93384 2595 ft 92 kts
2026-04-15 12:45 50.28627 13.93422 2429 ft 93 kts
2026-04-15 12:46 50.29218 13.93172 2300 ft 93 kts 313°
2026-04-15 12:46 50.29405 13.92255 2230 ft 86 kts 280°
2026-04-15 12:46 50.29485 13.91355 2206 ft 81 kts 277°
2026-04-15 12:46 50.29539 13.90483 2187 ft 82 kts 275°
2026-04-15 12:47 50.29588 13.89602 2180 ft 80 kts 275°
2026-04-15 12:47 50.29819 13.88913 2083 ft 72 kts 345°
2026-04-15 12:47 50.30287 13.88933 1916 ft 68 kts 31°
2026-04-15 12:47 50.30428 13.89597 1692 ft 72 kts 83°
2026-04-15 12:48 50.30466 13.90129 1537 ft 74 kts 86°
2026-04-15 12:48 50.30513 13.91152 1333 ft 68 kts 85°
2026-04-15 12:48 50.30535 13.91637 1267 ft 66 kts 84°
2026-04-15 12:48 50.30570 13.92317 1206 ft 56 kts 83°
2026-04-15 12:49 50.30595 13.92874 1197 ft 47 kts 85°
2026-04-15 12:49 50.30618 13.93356 1184 ft 42 kts 86°
2026-04-15 12:49 50.30640 13.93784 1180 ft 38 kts 84°
2026-04-15 12:49 50.30657 13.94163 1176 ft 34 kts 87°
2026-04-15 12:50 50.30675 13.94504 1170 ft 19 kts 82°
2026-04-15 12:50 50.30647 13.94603 1169 ft 6 kts 138°
2026-04-15 12:50 50.30640 13.94616 1169 ft 8 kts 130°
2026-04-15 12:50 50.30623 13.94782 1164 ft 20 kts 87°
2026-04-15 12:51 50.30618 13.94893 1162 ft 0 kts 115°